When you browse on this site, cookies collect data to enhance your experience and personalize the content and advertising you see.
Visit our Privacy Policy to learn more. By continuing to use the site, you agree to this use of cookies and data.
  • In Czech Republic
  • List of Countries
  • For 7 days
  • Water Temperature
  • Weather Map
  • Weather Widgets
  • user-avatar
    Login

    Hourly Weather Lankaran

    Today, 14 November, Thursday

    Time Temperature Precipitation Wind Pressure Humidity
    00:00 +2°C° 0 mm 0 mps 636 mmHg 84%
    01:00 +2°C° 0 mm 0 mps 636 mmHg 83%
    02:00 +2°C° 0 mm 0 mps 636 mmHg 83%
    03:00 +2°C° 0 mm 0 mps 636 mmHg 82%
    04:00 +2°C° 0 mm 0 mps 636 mmHg 83%
    05:00 +2°C° 0 mm 0 mps 636 mmHg 84%
    06:00 +1°C° 0 mm 0 mps 636 mmHg 85%
    07:00 +3°C° 0 mm 1 mps 636 mmHg 84%
    08:00 +4°C° 0 mm 1 mps 637 mmHg 83%
    09:00 +4°C° 0 mm 2 mps 638 mmHg 82%
    10:00 +5°C° 0 mm 2 mps 638 mmHg 80%
    11:00 +5°C° 0 mm 2 mps 638 mmHg 78%
    12:00 +6°C° 0 mm 2 mps 637 mmHg 76%
    13:00 +6°C° 0.1 mm 2 mps 637 mmHg 79%
    14:00 +5°C° 0.1 mm 2 mps 637 mmHg 81%
    15:00 +4°C° 0.1 mm 3 mps 637 mmHg 83%
    16:00 +5°C° 0.2 mm 2 mps 637 mmHg 87%
    17:00 +4°C° 0.2 mm 2 mps 637 mmHg 90%
    18:00 +4°C° 0.2 mm 2 mps 637 mmHg 94%
    19:00 +4°C° 0.3 mm 2 mps 638 mmHg 94%
    20:00 +3°C° 0.3 mm 2 mps 638 mmHg 94%
    21:00 +3°C° 0.3 mm 2 mps 638 mmHg 93%
    22:00 +3°C° 0.1 mm 2 mps 638 mmHg 94%
    23:00 +3°C° 0.1 mm 2 mps 638 mmHg 94%

    Tomorrow, 15 November, Friday

    Time Temperature Precipitation Wind Pressure Humidity
    00:00 +2°C° 0.1 mm 2 mps 638 mmHg 94%
    01:00 +3°C° 0 mm 1 mps 638 mmHg 93%
    02:00 +3°C° 0 mm 1 mps 638 mmHg 92%
    03:00 +3°C° 0 mm 1 mps 638 mmHg 91%
    04:00 +3°C° 0 mm 1 mps 638 mmHg 91%
    05:00 +2°C° 0 mm 1 mps 637 mmHg 91%
    06:00 +2°C° 0 mm 1 mps 637 mmHg 90%
    07:00 +3°C° 0 mm 1 mps 638 mmHg 87%
    08:00 +2°C° 0 mm 2 mps 638 mmHg 84%
    09:00 +2°C° 0 mm 2 mps 639 mmHg 81%
    10:00 +3°C° 0 mm 2 mps 638 mmHg 80%
    11:00 +3°C° 0 mm 2 mps 638 mmHg 79%
    12:00 +2°C° 0 mm 3 mps 638 mmHg 77%
    13:00 +2°C° 0 mm 3 mps 638 mmHg 78%
    14:00 +1°C° 0 mm 3 mps 638 mmHg 80%
    15:00 +1°C° 0 mm 3 mps 638 mmHg 81%
    16:00 +1°C° 0 mm 3 mps 638 mmHg 83%
    17:00 0°C° 0 mm 3 mps 638 mmHg 85%
    18:00 -1°C° 0 mm 3 mps 638 mmHg 87%
    19:00 -1°C° 0.1 mm 2 mps 638 mmHg 86%
    20:00 -2°C° 0.1 mm 2 mps 638 mmHg 85%
    21:00 -2°C° 0.1 mm 2 mps 639 mmHg 83%
    22:00 -2°C° 0 mm 2 mps 638 mmHg 84%
    23:00 -1°C° 0 mm 1 mps 638 mmHg 84%

    Day after tomorrow, 16 November, Saturday

    Time Temperature Precipitation Wind Pressure Humidity
    00:00 -1°C° 0 mm 1 mps 638 mmHg 84%
    01:00 -1°C° 0 mm 1 mps 638 mmHg 82%
    02:00 -1°C° 0 mm 1 mps 638 mmHg 80%
    03:00 -2°C° 0 mm 1 mps 638 mmHg 78%
    04:00 -2°C° 0 mm 1 mps 638 mmHg 80%
    05:00 -2°C° 0 mm 1 mps 638 mmHg 81%
    06:00 -2°C° 0 mm 1 mps 638 mmHg 82%
    07:00 -3°C° 0.1 mm 2 mps 639 mmHg 77%
    08:00 -2°C° 0.1 mm 2 mps 639 mmHg 72%
    09:00 -1°C° 0.1 mm 3 mps 640 mmHg 67%
    10:00 -1°C° 0.5 mm 3 mps 640 mmHg 71%
    11:00 -1°C° 0.5 mm 3 mps 640 mmHg 75%
    12:00 -1°C° 0.5 mm 2 mps 639 mmHg 79%
    13:00 -1°C° 0.6 mm 2 mps 639 mmHg 82%
    14:00 -1°C° 0.6 mm 2 mps 639 mmHg 84%
    15:00 -1°C° 0.6 mm 2 mps 639 mmHg 87%
    16:00 -2°C° 0.3 mm 2 mps 639 mmHg 88%
    17:00 0°C° 0.3 mm 1 mps 639 mmHg 89%
    18:00 0°C° 0.3 mm 1 mps 639 mmHg 90%
    19:00 -1°C° 0.2 mm 1 mps 639 mmHg 90%
    20:00 -1°C° 0.2 mm 1 mps 639 mmHg 90%
    21:00 -1°C° 0.2 mm 1 mps 639 mmHg 90%
    22:00 -1°C° 0 mm 1 mps 639 mmHg 88%
    23:00 -2°C° 0 mm 1 mps 639 mmHg 86%

    17 November, Sunday

    Time Temperature Precipitation Wind Pressure Humidity
    00:00 -2°C° 0 mm 1 mps 638 mmHg 84%
    01:00 -2°C° 0 mm 1 mps 638 mmHg 82%
    02:00 -2°C° 0 mm 1 mps 638 mmHg 80%
    03:00 -2°C° 0 mm 1 mps 638 mmHg 78%
    04:00 -2°C° 0 mm 1 mps 638 mmHg 77%
    05:00 -2°C° 0 mm 1 mps 638 mmHg 77%
    06:00 -2°C° 0 mm 1 mps 638 mmHg 76%
    07:00 -1°C° 0 mm 1 mps 639 mmHg 76%
    08:00 -3°C° 0 mm 2 mps 639 mmHg 76%
    09:00 -2°C° 0 mm 2 mps 639 mmHg 76%
    10:00 -1°C° 0.1 mm 2 mps 639 mmHg 77%
    11:00 -1°C° 0.1 mm 2 mps 639 mmHg 79%
    12:00 +1°C° 0.1 mm 2 mps 639 mmHg 80%
    13:00 +1°C° 0.1 mm 2 mps 639 mmHg 81%
    14:00 +1°C° 0.1 mm 2 mps 639 mmHg 83%
    15:00 +1°C° 0.1 mm 2 mps 638 mmHg 84%
    16:00 -1°C° 0.3 mm 2 mps 638 mmHg 86%
    17:00 -1°C° 0.3 mm 2 mps 638 mmHg 88%
    18:00 -2°C° 0.3 mm 2 mps 638 mmHg 89%
    19:00 -2°C° 0.2 mm 2 mps 638 mmHg 90%
    20:00 -2°C° 0.2 mm 2 mps 639 mmHg 90%
    21:00 -1°C° 0.2 mm 2 mps 639 mmHg 91%
    22:00 -2°C° 0.7 mm 2 mps 638 mmHg 92%
    23:00 -2°C° 0.7 mm 2 mps 638 mmHg 92%

    18 November, Monday

    Time Temperature Precipitation Wind Pressure Humidity
    00:00 -2°C° 0.7 mm 2 mps 638 mmHg 93%
    01:00 -2°C° 1.5 mm 2 mps 638 mmHg 94%
    02:00 -2°C° 1.5 mm 2 mps 638 mmHg 95%
    03:00 -2°C° 1.5 mm 2 mps 638 mmHg 95%
    04:00 -2°C° 0.9 mm 2 mps 638 mmHg 95%
    05:00 -2°C° 0.9 mm 2 mps 638 mmHg 94%
    06:00 -2°C° 0.9 mm 2 mps 638 mmHg 94%
    07:00 -2°C° 0.8 mm 2 mps 638 mmHg 94%
    08:00 -2°C° 0.8 mm 2 mps 638 mmHg 93%
    09:00 -1°C° 0.8 mm 2 mps 638 mmHg 93%
    10:00 -1°C° 1.2 mm 2 mps 638 mmHg 93%
    11:00 +1°C° 1.2 mm 1 mps 638 mmHg 93%
    12:00 +1°C° 1.2 mm 1 mps 637 mmHg 93%
    13:00 +1°C° 0.7 mm 1 mps 637 mmHg 93%
    14:00 +1°C° 0.7 mm 1 mps 637 mmHg 93%
    15:00 +1°C° 0.7 mm 1 mps 636 mmHg 93%
    16:00 +1°C° 0.2 mm 1 mps 637 mmHg 93%
    17:00 +1°C° 0.2 mm 1 mps 637 mmHg 93%
    18:00 +1°C° 0.2 mm 1 mps 637 mmHg 93%
    19:00 +1°C° 0.1 mm 1 mps 637 mmHg 93%
    20:00 +1°C° 0.1 mm 1 mps 637 mmHg 92%
    21:00 +1°C° 0.1 mm 1 mps 637 mmHg 91%
    22:00 +1°C° 0 mm 1 mps 637 mmHg 91%
    23:00 +1°C° 0 mm 1 mps 636 mmHg 91%

    19 November, Tuesday

    Time Temperature Precipitation Wind Pressure Humidity
    00:00 0°C° 0 mm 1 mps 636 mmHg 91%
    01:00 0°C° 0.1 mm 1 mps 636 mmHg 91%
    02:00 0°C° 0.1 mm 1 mps 636 mmHg 91%
    03:00 0°C° 0.1 mm 1 mps 635 mmHg 91%
    04:00 0°C° 0.1 mm 1 mps 636 mmHg 91%
    05:00 0°C° 0.1 mm 1 mps 636 mmHg 91%
    06:00 0°C° 0.1 mm 1 mps 636 mmHg 91%
    07:00 +1°C° 0.1 mm 1 mps 636 mmHg 90%
    08:00 +1°C° 0.1 mm 1 mps 636 mmHg 90%
    09:00 0°C° 0.1 mm 0 mps 637 mmHg 89%
    10:00 +1°C° 0.1 mm 0 mps 637 mmHg 89%
    11:00 +1°C° 0.1 mm 0 mps 637 mmHg 88%
    12:00 +1°C° 0.1 mm 0 mps 637 mmHg 88%
    13:00 +2°C° 0.1 mm 1 mps 636 mmHg 88%
    14:00 +2°C° 0.1 mm 1 mps 636 mmHg 89%
    15:00 +2°C° 0.1 mm 1 mps 636 mmHg 89%
    16:00 +1°C° 0.1 mm 0 mps 636 mmHg 90%
    17:00 0°C° 0.1 mm 0 mps 636 mmHg 91%
    18:00 0°C° 0.1 mm 0 mps 636 mmHg 92%
    19:00 0°C° 0 mm 0 mps 636 mmHg 91%
    20:00 0°C° 0 mm 0 mps 636 mmHg 91%
    21:00 -1°C° 0 mm 0 mps 636 mmHg 90%
    22:00 -1°C° 0 mm 0 mps 636 mmHg 89%
    23:00 -1°C° 0 mm 0 mps 636 mmHg 88%
    Show more